{"data":{"norad_id":46913,"epoch":"2026-09-20T04:25:51.264768Z","epoch_age_seconds":100787,"freshness":"FRESH","line1":"1 46913U 20081J   26263.18462112  .00005886  00000+0  22257-3 0  9995","line2":"2 46913  36.8950 195.4778 0007293 347.9896  12.0678 15.26670147326503","mean_motion":15.26670147,"eccentricity":0.0007293,"inclination_deg":36.895,"raan_deg":195.4778,"arg_perigee_deg":347.9896,"mean_anomaly_deg":12.0678,"bstar":0.00022257,"rev_number":32650,"period_min":94.322929077358,"perigee_km":480.76902528776,"apogee_km":490.78072715041,"semimajor_km":6863.9118762191,"source":"CELESTRAK","updated_at":"2026-09-20T09:00:14.801313Z"}}